| time (UTC) | temp C | wind direction | speed KPH | gust KPH | rain 1hr cm | rain 24hr cm | rain mn cm | humidity % | barometer mb |
| 20260502164057 | 13 | 40 | 12.9 | 24.1 | 0.00 | 0.00 | 0.00 | 31 | 1022.0 |
| 20260502163558 | 13 | 117 | 9.7 | 22.5 | 0.00 | 0.00 | 0.00 | 32 | 1022.1 |
| 20260502163104 | 13 | 48 | 9.7 | 22.5 | 0.00 | 0.00 | 0.00 | 30 | 1022.2 |
| 20260502162558 | 13 | 118 | 6.4 | 16.1 | 0.00 | 0.00 | 0.00 | 33 | 1022.0 |
| 20260502162057 | 13 | 105 | 6.4 | 12.9 | 0.00 | 0.00 | 0.00 | 37 | 1022.2 |
| 20260502161600 | 13 | 49 | 1.6 | 6.4 | 0.00 | 0.00 | 0.00 | 53 | 1022.0 |
| 20260502161057 | 13 | 111 | 0.0 | 8.0 | 0.00 | 0.00 | 0.00 | 53 | 1022.2 |
| 20260502160558 | 12 | 0 | 3.2 | 8.0 | 0.00 | 0.00 | 0.00 | 59 | 1022.1 |
| 20260502152057 | 8 | 0 | 0.0 | 1.6 | 0.00 | 0.00 | 0.00 | 72 | 1022.5 |
| 20260502151607 | 8 | 0 | 0.0 | 1.6 | 0.00 | 0.00 | 0.00 | 74 | 1022.6 |
| 20260502151100 | 7 | 58 | 0.0 | 0.0 | 0.00 | 0.00 | 0.00 | 75 | 1022.6 |
| 20260502150557 | 7 | 0 | 0.0 | 0.0 | 0.00 | 0.00 | 0.00 | 76 | 1022.5 |
| 20260502140105 | 4 | 0 | 0.0 | 0.0 | 0.00 | 0.00 | 0.00 | 80 | 1022.3 |
| 20260502130557 | 2 | 0 | 0.0 | 0.0 | 0.00 | 0.00 | 0.00 | 82 | 1022.0 |
| 20260502123558 | 3 | 0 | 0.0 | 1.6 | 0.00 | 0.00 | 0.00 | 77 | 1021.8 |
| 20260502123057 | 3 | 169 | 0.0 | 1.6 | 0.00 | 0.00 | 0.00 | 78 | 1021.8 |
| 20260502122558 | 3 | 0 | 0.0 | 1.6 | 0.00 | 0.00 | 0.00 | 77 | 1021.8 |
| 20260502122059 | 3 | 0 | 0.0 | 1.6 | 0.00 | 0.00 | 0.00 | 76 | 1021.7 |
| 20260502121559 | 3 | 0 | 0.0 | 3.2 | 0.00 | 0.00 | 0.00 | 78 | 1021.9 |
| 20260502121059 | 3 | 181 | 1.6 | 3.2 | 0.00 | 0.00 | 0.00 | 75 | 1021.8 |
| 20260502120601 | 3 | 0 | 0.0 | 3.2 | 0.00 | 0.00 | 0.00 | 75 | 1021.7 |
| 20260502120106 | 3 | 0 | 0.0 | 0.0 | 0.00 | 0.00 | 0.00 | 75 | 1021.8 |
| 20260502115558 | 3 | 0 | 0.0 | 0.0 | 0.00 | 0.00 | 0.00 | 76 | 1021.7 |
| 20260502115058 | 3 | 0 | 0.0 | 0.0 | 0.00 | 0.00 | 0.00 | 79 | 1021.8 |
| 20260502114559 | 3 | 0 | 0.0 | 0.0 | 0.00 | 0.00 | 0.00 | 78 | 1021.8 |
| 20260502114058 | 3 | 0 | 0.0 | 1.6 | 0.00 | 0.00 | 0.00 | 78 | 1021.7 |
| 20260502113558 | 3 | 0 | 0.0 | 3.2 | 0.00 | 0.00 | 0.00 | 76 | 1021.8 |
| 20260502113100 | 3 | 0 | 0.0 | 3.2 | 0.00 | 0.00 | 0.00 | 73 | 1021.9 |
| 20260502112600 | 4 | 242 | 0.0 | 3.2 | 0.00 | 0.00 | 0.00 | 73 | 1021.8 |
| 20260502112057 | 4 | 0 | 0.0 | 0.0 | 0.00 | 0.00 | 0.00 | 77 | 1021.8 |
| 20260502111558 | 4 | 0 | 0.0 | 0.0 | 0.00 | 0.00 | 0.00 | 73 | 1021.9 |
| 20260502111057 | 4 | 0 | 0.0 | 1.6 | 0.00 | 0.00 | 0.00 | 72 | 1022.0 |
| 20260502110601 | 5 | 0 | 0.0 | 3.2 | 0.00 | 0.00 | 0.00 | 75 | 1021.9 |
| 20260502105558 | 4 | 175 | 1.6 | 4.8 | 0.00 | 0.00 | 0.00 | 71 | 1021.9 |
| 20260502105058 | 5 | 0 | 0.0 | 1.6 | 0.00 | 0.00 | 0.00 | 73 | 1022.0 |
| 20260502104557 | 5 | 231 | 0.0 | 1.6 | 0.00 | 0.00 | 0.00 | 78 | 1021.8 |
| 20260502104058 | 5 | 0 | 0.0 | 0.0 | 0.00 | 0.00 | 0.00 | 75 | 1021.9 |
| 20260502103558 | 5 | 0 | 0.0 | 0.0 | 0.00 | 0.00 | 0.00 | 75 | 1022.0 |
| 20260502103101 | 5 | 0 | 0.0 | 0.0 | 0.00 | 0.00 | 0.00 | 72 | 1021.8 |
| 20260502102559 | 5 | 0 | 0.0 | 3.2 | 0.00 | 0.00 | 0.00 | 72 | 1021.9 |
| 20260502102059 | 5 | 174 | 0.0 | 3.2 | 0.00 | 0.00 | 0.00 | 71 | 1021.8 |
| 20260502101558 | 5 | 175 | 0.0 | 3.2 | 0.00 | 0.00 | 0.00 | 72 | 1021.8 |
| 20260502101059 | 5 | 169 | 1.6 | 3.2 | 0.00 | 0.00 | 0.00 | 69 | 1021.7 |
| 20260502100557 | 5 | 0 | 0.0 | 3.2 | 0.00 | 0.00 | 0.00 | 70 | 1021.7 |
| 20260502091059 | 6 | 0 | 0.0 | 3.2 | 0.00 | 0.00 | 0.00 | 66 | 1021.9 |
| 20260502090601 | 6 | 0 | 0.0 | 3.2 | 0.00 | 0.00 | 0.00 | 67 | 1021.8 |
| 20260502080108 | 8 | 0 | 0.0 | 1.6 | 0.00 | 0.00 | 0.00 | 61 | 1022.2 |
| 20260502071057 | 9 | 0 | 0.0 | 0.0 | 0.00 | 0.00 | 0.00 | 57 | 1022.4 |
| 20260502070559 | 9 | 0 | 0.0 | 0.0 | 0.00 | 0.00 | 0.00 | 58 | 1022.5 |
| 20260502070101 | 9 | 0 | 0.0 | 1.6 | 0.00 | 0.00 | 0.00 | 57 | 1022.4 |
| 20260502065558 | 9 | 0 | 0.0 | 1.6 | 0.00 | 0.00 | 0.00 | 57 | 1022.4 |
| 20260502065101 | 9 | 0 | 0.0 | 1.6 | 0.00 | 0.00 | 0.00 | 56 | 1022.4 |
| 20260502064603 | 10 | 0 | 0.0 | 1.6 | 0.00 | 0.00 | 0.00 | 54 | 1022.5 |
| 20260502064058 | 10 | 0 | 0.0 | 1.6 | 0.00 | 0.00 | 0.00 | 51 | 1022.5 |
| 20260502063558 | 10 | 0 | 0.0 | 0.0 | 0.00 | 0.00 | 0.00 | 50 | 1022.4 |
| 20260502063059 | 10 | 0 | 0.0 | 0.0 | 0.00 | 0.00 | 0.00 | 50 | 1022.4 |
| 20260502062559 | 10 | 0 | 0.0 | 1.6 | 0.00 | 0.00 | 0.00 | 51 | 1022.3 |
| 20260502062058 | 11 | 0 | 0.0 | 1.6 | 0.00 | 0.00 | 0.00 | 52 | 1022.4 |
| 20260502061558 | 11 | 0 | 0.0 | 1.6 | 0.00 | 0.00 | 0.00 | 52 | 1022.2 |
| 20260502061058 | 11 | 0 | 0.0 | 1.6 | 0.00 | 0.00 | 0.00 | 51 | 1022.1 |
| 20260502060558 | 11 | 0 | 0.0 | 4.8 | 0.00 | 0.00 | 0.00 | 51 | 1022.2 |
| 20260502060058 | 11 | 0 | 0.0 | 6.4 | 0.00 | 0.00 | 0.00 | 50 | 1022.2 |
| 20260502055558 | 11 | 65 | 3.2 | 11.3 | 0.00 | 0.00 | 0.00 | 49 | 1022.1 |
| 20260502055058 | 11 | 80 | 4.8 | 11.3 | 0.00 | 0.00 | 0.00 | 51 | 1022.2 |
| 20260502054559 | 11 | 39 | 4.8 | 9.7 | 0.00 | 0.00 | 0.00 | 51 | 1022.3 |
| 20260502054102 | 11 | 0 | 0.0 | 1.6 | 0.00 | 0.00 | 0.00 | 51 | 1022.3 |
| 20260502053559 | 11 | 4 | 0.0 | 3.2 | 0.00 | 0.00 | 0.00 | 51 | 1022.3 |
| 20260502053056 | 11 | 0 | 0.0 | 3.2 | 0.00 | 0.00 | 0.00 | 48 | 1022.3 |
| 20260502052600 | 11 | 0 | 0.0 | 3.2 | 0.00 | 0.00 | 0.00 | 49 | 1022.5 |
| 20260502052058 | 11 | 340 | 0.0 | 3.2 | 0.00 | 0.00 | 0.00 | 49 | 1022.3 |
| 20260502051556 | 10 | 0 | 0.0 | 1.6 | 0.00 | 0.00 | 0.00 | 47 | 1022.3 |
| 20260502051058 | 11 | 0 | 0.0 | 1.6 | 0.00 | 0.00 | 0.00 | 44 | 1022.2 |
| 20260502050559 | 11 | 0 | 0.0 | 1.6 | 0.00 | 0.00 | 0.00 | 42 | 1022.3 |
| 20260502050057 | 11 | 0 | 0.0 | 1.6 | 0.00 | 0.00 | 0.00 | 41 | 1022.3 |
| 20260502045558 | 11 | 0 | 0.0 | 1.6 | 0.00 | 0.00 | 0.00 | 41 | 1022.2 |
| 20260502045058 | 10 | 0 | 0.0 | 1.6 | 0.00 | 0.00 | 0.00 | 40 | 1022.2 |
| 20260502044600 | 10 | 0 | 0.0 | 1.6 | 0.00 | 0.00 | 0.00 | 39 | 1022.2 |
| 20260502044100 | 10 | 0 | 0.0 | 1.6 | 0.00 | 0.00 | 0.00 | 39 | 1022.1 |
| 20260502043558 | 10 | 0 | 0.0 | 1.6 | 0.00 | 0.00 | 0.00 | 39 | 1022.0 |
| 20260502043102 | 10 | 0 | 0.0 | 6.4 | 0.00 | 0.00 | 0.00 | 36 | 1021.9 |
| 20260502042558 | 10 | 0 | 0.0 | 6.4 | 0.00 | 0.00 | 0.00 | 37 | 1021.7 |
| 20260502042058 | 10 | 236 | 1.6 | 4.8 | 0.00 | 0.00 | 0.00 | 36 | 1021.7 |
| 20260502041556 | 10 | 222 | 0.0 | 1.6 | 0.00 | 0.00 | 0.00 | 35 | 1021.5 |
| 20260502041058 | 11 | 255 | 0.0 | 1.6 | 0.00 | 0.00 | 0.00 | 34 | 1021.4 |
| 20260502040557 | 11 | 0 | 0.0 | 1.6 | 0.00 | 0.00 | 0.00 | 32 | 1021.3 |
| 20260502040107 | 12 | 0 | 0.0 | 4.8 | 0.00 | 0.00 | 0.00 | 31 | 1021.1 |
| 20260502035558 | 12 | 0 | 0.0 | 14.5 | 0.00 | 0.00 | 0.00 | 29 | 1021.1 |
| 20260502035103 | 12 | 181 | 3.2 | 14.5 | 0.00 | 0.00 | 0.00 | 27 | 1020.9 |
| 20260502034558 | 12 | 148 | 6.4 | 14.5 | 0.00 | 0.00 | 0.00 | 28 | 1021.0 |
| 20260502034059 | 11 | 82 | 0.0 | 3.2 | 0.00 | 0.00 | 0.00 | 29 | 1020.9 |
| 20260502033558 | 12 | 0 | 0.0 | 1.6 | 0.00 | 0.00 | 0.00 | 31 | 1020.9 |
| 20260502033057 | 12 | 0 | 0.0 | 1.6 | 0.00 | 0.00 | 0.00 | 31 | 1020.8 |
| 20260502032559 | 12 | 0 | 0.0 | 6.4 | 0.00 | 0.00 | 0.00 | 29 | 1020.6 |
| 20260502032058 | 13 | 178 | 0.0 | 12.9 | 0.00 | 0.00 | 0.00 | 28 | 1020.7 |
| 20260502031619 | 13 | 52 | 4.8 | 12.9 | 0.00 | 0.00 | 0.00 | 26 | 1020.7 |
| 20260502031058 | 13 | 62 | 3.2 | 12.9 | 0.00 | 0.00 | 0.00 | 26 | 1020.6 |
| 20260502030558 | 13 | 46 | 1.6 | 9.7 | 0.00 | 0.00 | 0.00 | 27 | 1020.4 |
| 20260502030100 | 14 | 0 | 1.6 | 9.7 | 0.00 | 0.00 | 0.00 | 26 | 1020.4 |
| 20260502025557 | 14 | 52 | 3.2 | 8.0 | 0.00 | 0.00 | 0.00 | 26 | 1020.4 |
| 20260502025058 | 14 | 90 | 1.6 | 9.7 | 0.00 | 0.00 | 0.00 | 26 | 1020.4 |
| 20260502024556 | 14 | 53 | 1.6 | 11.3 | 0.00 | 0.00 | 0.00 | 25 | 1020.3 |
| 20260502024058 | 14 | 108 | 3.2 | 11.3 | 0.00 | 0.00 | 0.00 | 25 | 1020.3 |
| 20260502023558 | 15 | 91 | 3.2 | 11.3 | 0.00 | 0.00 | 0.00 | 24 | 1020.3 |
| 20260502023059 | 15 | 65 | 4.8 | 11.3 | 0.00 | 0.00 | 0.00 | 24 | 1020.3 |
| 20260502022558 | 15 | 77 | 1.6 | 11.3 | 0.00 | 0.00 | 0.00 | 24 | 1020.3 |
| 20260502022100 | 15 | 115 | 3.2 | 9.7 | 0.00 | 0.00 | 0.00 | 24 | 1020.2 |
| 20260502021559 | 15 | 133 | 1.6 | 14.5 | 0.00 | 0.00 | 0.00 | 23 | 1020.2 |
| 20260502021058 | 15 | 57 | 3.2 | 17.7 | 0.00 | 0.00 | 0.00 | 23 | 1020.2 |
| 20260502020558 | 15 | 108 | 6.4 | 17.7 | 0.00 | 0.00 | 0.00 | 23 | 1020.2 |
| 20260502020111 | 15 | 27 | 3.2 | 16.1 | 0.00 | 0.00 | 0.00 | 23 | 1020.2 |
| 20260502015602 | 15 | 124 | 3.2 | 16.1 | 0.00 | 0.00 | 0.00 | 23 | 1020.2 |
| 20260502015058 | 15 | 76 | 8.0 | 16.1 | 0.00 | 0.00 | 0.00 | 22 | 1020.2 |
| 20260502014559 | 15 | 97 | 8.0 | 14.5 | 0.00 | 0.00 | 0.00 | 22 | 1020.1 |
| 20260502014058 | 16 | 94 | 6.4 | 14.5 | 0.00 | 0.00 | 0.00 | 22 | 1020.2 |
| 20260502013559 | 16 | 166 | 3.2 | 20.9 | 0.00 | 0.00 | 0.00 | 22 | 1020.2 |
| 20260502013106 | 16 | 47 | 6.4 | 20.9 | 0.00 | 0.00 | 0.00 | 21 | 1020.2 |
| 20260502012558 | 16 | 149 | 6.4 | 19.3 | 0.00 | 0.00 | 0.00 | 22 | 1020.1 |
| 20260502012058 | 16 | 132 | 4.8 | 16.1 | 0.00 | 0.00 | 0.00 | 21 | 1020.2 |
| 20260502011559 | 16 | 104 | 6.4 | 16.1 | 0.00 | 0.00 | 0.00 | 21 | 1020.2 |
| 20260502011059 | 16 | 139 | 8.0 | 16.1 | 0.00 | 0.00 | 0.00 | 21 | 1020.2 |
| 20260502010558 | 16 | 132 | 4.8 | 19.3 | 0.00 | 0.00 | 0.00 | 21 | 1020.2 |
| 20260502005558 | 17 | 130 | 8.0 | 16.1 | 0.00 | 0.00 | 0.00 | 21 | 1020.2 |
| 20260502005059 | 17 | 132 | 6.4 | 17.7 | 0.00 | 0.00 | 0.00 | 21 | 1020.1 |
| 20260502004604 | 17 | 124 | 4.8 | 17.7 | 0.00 | 0.00 | 0.00 | 20 | 1020.1 |
| 20260502004058 | 17 | 104 | 8.0 | 16.1 | 0.00 | 0.00 | 0.00 | 20 | 1020.2 |
| 20260502003557 | 17 | 91 | 6.4 | 20.9 | 0.00 | 0.00 | 0.00 | 21 | 1020.0 |
| 20260502003132 | 17 | 109 | 8.0 | 20.9 | 0.00 | 0.00 | 0.00 | 20 | 1020.3 |
| 20260502002557 | 17 | 68 | 6.4 | 16.1 | 0.00 | 0.00 | 0.00 | 20 | 1020.3 |
| 20260502002059 | 17 | 155 | 8.0 | 17.7 | 0.00 | 0.00 | 0.00 | 20 | 1020.3 |
| 20260502001632 | 17 | 133 | 4.8 | 17.7 | 0.00 | 0.00 | 0.00 | 20 | 1020.4 |
| 20260502001101 | 17 | 70 | 8.0 | 16.1 | 0.00 | 0.00 | 0.00 | 20 | 1020.6 |
| 20260502000554 | 17 | 77 | 6.4 | 17.7 | 0.00 | 0.00 | 0.00 | 20 | 1020.6 |
| 20260502000059 | 17 | 79 | 6.4 | 17.7 | 0.00 | 0.00 | 0.00 | 21 | 1020.5 |
| 20260501235559 | 17 | 139 | 9.7 | 16.1 | 0.00 | 0.00 | 0.00 | 21 | 1020.5 |
| 20260501235058 | 17 | 89 | 4.8 | 25.7 | 0.00 | 0.00 | 0.00 | 20 | 1020.5 |
| 20260501234600 | 17 | 31 | 4.8 | 25.7 | 0.00 | 0.00 | 0.00 | 19 | 1020.6 |
| 20260501234058 | 17 | 60 | 6.4 | 19.3 | 0.00 | 0.00 | 0.00 | 19 | 1020.5 |
| 20260501233559 | 18 | 32 | 4.8 | 19.3 | 0.00 | 0.00 | 0.00 | 21 | 1020.6 |
| 20260501233058 | 18 | 50 | 3.2 | 9.7 | 0.00 | 0.00 | 0.00 | 20 | 1020.6 |
| 20260501232558 | 18 | 356 | 1.6 | 9.7 | 0.00 | 0.00 | 0.00 | 19 | 1020.4 |
| 20260501232101 | 18 | 300 | 4.8 | 9.7 | 0.00 | 0.00 | 0.00 | 21 | 1020.6 |
| 20260501231558 | 18 | 0 | 3.2 | 12.9 | 0.00 | 0.00 | 0.00 | 20 | 1020.6 |
| 20260501231058 | 18 | 55 | 3.2 | 17.7 | 0.00 | 0.00 | 0.00 | 21 | 1020.7 |
| 20260501230559 | 18 | 91 | 6.4 | 17.7 | 0.00 | 0.00 | 0.00 | 20 | 1020.8 |
| 20260501230100 | 18 | 330 | 3.2 | 11.3 | 0.00 | 0.00 | 0.00 | 20 | 1020.8 |
| 20260501225558 | 18 | 56 | 1.6 | 8.0 | 0.00 | 0.00 | 0.00 | 20 | 1020.9 |
| 20260501225057 | 18 | 0 | 1.6 | 11.3 | 0.00 | 0.00 | 0.00 | 19 | 1020.9 |
| 20260501224604 | 18 | 281 | 3.2 | 11.3 | 0.00 | 0.00 | 0.00 | 19 | 1021.1 |
| 20260501224057 | 18 | 313 | 3.2 | 8.0 | 0.00 | 0.00 | 0.00 | 19 | 1021.2 |
| 20260501223559 | 18 | 318 | 3.2 | 9.7 | 0.00 | 0.00 | 0.00 | 18 | 1021.2 |
| 20260501223109 | 18 | 347 | 1.6 | 9.7 | 0.00 | 0.00 | 0.00 | 19 | 1021.3 |
| 20260501222558 | 18 | 13 | 3.2 | 9.7 | 0.00 | 0.00 | 0.00 | 19 | 1021.3 |
| 20260501222058 | 18 | 30 | 4.8 | 9.7 | 0.00 | 0.00 | 0.00 | 18 | 1021.3 |
| 20260501221556 | 18 | 24 | 3.2 | 9.7 | 0.00 | 0.00 | 0.00 | 18 | 1021.5 |
| 20260501221058 | 18 | 24 | 3.2 | 9.7 | 0.00 | 0.00 | 0.00 | 18 | 1021.5 |
| 20260501220558 | 18 | 278 | 3.2 | 9.7 | 0.00 | 0.00 | 0.00 | 18 | 1021.6 |
| 20260501220100 | 18 | 26 | 1.6 | 9.7 | 0.00 | 0.00 | 0.00 | 19 | 1021.7 |
| 20260501215558 | 18 | 25 | 3.2 | 9.7 | 0.00 | 0.00 | 0.00 | 15 | 1021.8 |
| 20260501215058 | 18 | 305 | 3.2 | 9.7 | 0.00 | 0.00 | 0.00 | 16 | 1021.9 |
| 20260501214556 | 18 | 309 | 1.6 | 9.7 | 0.00 | 0.00 | 0.00 | 18 | 1021.9 |
| 20260501214057 | 18 | 14 | 3.2 | 9.7 | 0.00 | 0.00 | 0.00 | 18 | 1022.0 |
| 20260501213557 | 18 | 13 | 1.6 | 9.7 | 0.00 | 0.00 | 0.00 | 17 | 1022.0 |
| 20260501213115 | 18 | 257 | 1.6 | 9.7 | 0.00 | 0.00 | 0.00 | 18 | 1022.1 |
| 20260501212557 | 18 | 308 | 4.8 | 11.3 | 0.00 | 0.00 | 0.00 | 18 | 1022.1 |
| 20260501212058 | 18 | 84 | 3.2 | 11.3 | 0.00 | 0.00 | 0.00 | 19 | 1022.2 |
| 20260501211555 | 18 | 317 | 3.2 | 11.3 | 0.00 | 0.00 | 0.00 | 18 | 1022.2 |
| 20260501211101 | 18 | 11 | 3.2 | 11.3 | 0.00 | 0.00 | 0.00 | 19 | 1022.3 |
| 20260501210558 | 18 | 2 | 6.4 | 11.3 | 0.00 | 0.00 | 0.00 | 17 | 1022.3 |
| 20260501205559 | 18 | 311 | 1.6 | 8.0 | 0.00 | 0.00 | 0.00 | 16 | 1022.5 |
| 20260501205058 | 18 | 44 | 3.2 | 11.3 | 0.00 | 0.00 | 0.00 | 18 | 1022.6 |
| 20260501204559 | 18 | 305 | 4.8 | 11.3 | 0.00 | 0.00 | 0.00 | 17 | 1022.6 |
| 20260501204103 | 18 | 342 | 3.2 | 8.0 | 0.00 | 0.00 | 0.00 | 22 | 1022.6 |
| 20260501203558 | 18 | 303 | 1.6 | 8.0 | 0.00 | 0.00 | 0.00 | 21 | 1022.7 |
| 20260501203102 | 18 | 302 | 1.6 | 9.7 | 0.00 | 0.00 | 0.00 | 19 | 1022.6 |
| 20260501202558 | 17 | 329 | 4.8 | 9.7 | 0.00 | 0.00 | 0.00 | 19 | 1022.7 |
| 20260501202058 | 18 | 295 | 3.2 | 11.3 | 0.00 | 0.00 | 0.00 | 20 | 1022.7 |
| 20260501201556 | 17 | 139 | 3.2 | 11.3 | 0.00 | 0.00 | 0.00 | 21 | 1022.6 |
| 20260501201057 | 18 | 286 | 1.6 | 8.0 | 0.00 | 0.00 | 0.00 | 22 | 1022.7 |
| 20260501200557 | 17 | 91 | 3.2 | 8.0 | 0.00 | 0.00 | 0.00 | 21 | 1022.8 |
| 20260501200057 | 17 | 32 | 3.2 | 9.7 | 0.00 | 0.00 | 0.00 | 20 | 1022.8 |
| 20260501195600 | 17 | 302 | 3.2 | 9.7 | 0.00 | 0.00 | 0.00 | 20 | 1022.9 |
| 20260501195100 | 17 | 76 | 1.6 | 9.7 | 0.00 | 0.00 | 0.00 | 21 | 1022.9 |
| 20260501194600 | 18 | 68 | 3.2 | 12.9 | 0.00 | 0.00 | 0.00 | 19 | 1023.0 |
| 20260501194057 | 17 | 213 | 4.8 | 12.9 | 0.00 | 0.00 | 0.00 | 21 | 1022.9 |
| 20260501193559 | 17 | 265 | 1.6 | 9.7 | 0.00 | 0.00 | 0.00 | 22 | 1023.0 |
| 20260501193056 | 17 | 228 | 3.2 | 8.0 | 0.00 | 0.00 | 0.00 | 20 | 1023.1 |
| 20260501192558 | 17 | 322 | 1.6 | 11.3 | 0.00 | 0.00 | 0.00 | 22 | 1023.2 |
| 20260501192100 | 16 | 339 | 1.6 | 11.3 | 0.00 | 0.00 | 0.00 | 24 | 1023.2 |
| 20260501191559 | 17 | 86 | 3.2 | 9.7 | 0.00 | 0.00 | 0.00 | 23 | 1023.4 |
| 20260501191058 | 17 | 356 | 4.8 | 9.7 | 0.00 | 0.00 | 0.00 | 21 | 1023.4 |
| 20260501190556 | 16 | 360 | 3.2 | 9.7 | 0.00 | 0.00 | 0.00 | 25 | 1023.6 |
| 20260501190108 | 17 | 23 | 3.2 | 8.0 | 0.00 | 0.00 | 0.00 | 23 | 1023.7 |
| 20260501185557 | 16 | 286 | 3.2 | 8.0 | 0.00 | 0.00 | 0.00 | 23 | 1023.7 |
| 20260501185100 | 17 | 346 | 3.2 | 8.0 | 0.00 | 0.00 | 0.00 | 22 | 1023.9 |
| 20260501184556 | 17 | 53 | 3.2 | 8.0 | 0.00 | 0.00 | 0.00 | 21 | 1023.9 |
| 20260501184058 | 17 | 318 | 1.6 | 9.7 | 0.00 | 0.00 | 0.00 | 22 | 1023.9 |
| 20260501183558 | 16 | 0 | 1.6 | 9.7 | 0.00 | 0.00 | 0.00 | 23 | 1024.0 |
| 20260501183058 | 16 | 260 | 3.2 | 8.0 | 0.00 | 0.00 | 0.00 | 24 | 1024.0 |
| 20260501182559 | 16 | 264 | 3.2 | 9.7 | 0.00 | 0.00 | 0.00 | 23 | 1023.9 |
| 20260501182100 | 16 | 300 | 3.2 | 9.7 | 0.00 | 0.00 | 0.00 | 24 | 1023.9 |
| 20260501181559 | 16 | 289 | 3.2 | 9.7 | 0.00 | 0.00 | 0.00 | 24 | 1024.0 |
| 20260501181057 | 15 | 294 | 3.2 | 9.7 | 0.00 | 0.00 | 0.00 | 24 | 1024.0 |
| 20260501180557 | 15 | 316 | 4.8 | 9.7 | 0.00 | 0.00 | 0.00 | 24 | 1023.9 |
| 20260501180058 | 16 | 339 | 4.8 | 8.0 | 0.00 | 0.00 | 0.00 | 24 | 1024.0 |
| 20260501175559 | 16 | 19 | 1.6 | 4.8 | 0.00 | 0.00 | 0.00 | 24 | 1024.0 |
| 20260501175057 | 16 | 312 | 1.6 | 8.0 | 0.00 | 0.00 | 0.00 | 26 | 1024.0 |
| 20260501174557 | 15 | 49 | 3.2 | 8.0 | 0.00 | 0.00 | 0.00 | 27 | 1024.2 |
| 20260501174057 | 15 | 314 | 0.0 | 6.4 | 0.00 | 0.00 | 0.00 | 27 | 1024.0 |
| 20260501173600 | 15 | 61 | 3.2 | 6.4 | 0.00 | 0.00 | 0.00 | 27 | 1024.0 |
| 20260501173105 | 15 | 226 | 1.6 | 6.4 | 0.00 | 0.00 | 0.00 | 27 | 1023.9 |
| 20260501172558 | 15 | 315 | 1.6 | 6.4 | 0.00 | 0.00 | 0.00 | 28 | 1024.0 |
| 20260501172058 | 15 | 283 | 0.0 | 9.7 | 0.00 | 0.00 | 0.00 | 26 | 1024.1 |
| 20260501171559 | 15 | 295 | 1.6 | 9.7 | 0.00 | 0.00 | 0.00 | 29 | 1024.2 |
| 20260501171101 | 14 | 48 | 3.2 | 9.7 | 0.00 | 0.00 | 0.00 | 29 | 1024.2 |
| 20260501170558 | 14 | 297 | 1.6 | 6.4 | 0.00 | 0.00 | 0.00 | 28 | 1024.2 |
| 20260501170059 | 14 | 62 | 1.6 | 6.4 | 0.00 | 0.00 | 0.00 | 29 | 1024.1 |
| 20260501165601 | 14 | 114 | 1.6 | 6.4 | 0.00 | 0.00 | 0.00 | 30 | 1024.2 |